Time,TemperatureF,DewpointF,PressureIn,WindDirection,WindDirectionDegrees,WindSpeedMPH,WindSpeedGustMPH,Humidity,HourlyPrecipIn,Conditions,Clouds,dailyrainin,SoftwareType,DateUTC
2014-01-01 00:01:00,47.8,43.2,30.34,ENE,57,0.0,0.0,84,0.00,CLR,,0.00,WeatherDisplay:10.37,2014-01-01 05:01:00,
2014-01-01 00:06:00,47.8,43.2,30.34,NE,41,0.0,0.0,84,0.00,CLR,,0.00,WeatherDisplay:10.37,2014-01-01 05:06:00,
2014-01-01 00:11:00,47.8,43.5,30.33,NE,42,0.0,0.0,85,0.00,CLR,,0.00,WeatherDisplay:10.37,2014-01-01 05:11:00,
2014-01-01 00:16:00,47.8,43.5,30.33,NE,42,0.0,0.0,85,0.00,CLR,,0.00,WeatherDisplay:10.37,2014-01-01 05:16:00,
2014-01-01 00:21:00,47.8,43.5,30.33,NE,43,0.0,0.0,85,0.00,CLR,,0.00,WeatherDisplay:10.37,2014-01-01 05:21:00,
2014-01-01 00:26:00,47.7,43.4,30.34,NE,42,0.0,0.0,85,0.00,CLR,,0.00,WeatherDisplay:10.37,2014-01-01 05:26:00,
2014-01-01 00:31:00,47.7,43.4,30.33,NE,42,0.0,0.0,85,0.00,CLR,,0.00,WeatherDisplay:10.37,2014-01-01 05:31:00,
2014-01-01 00:36:00,47.7,43.4,30.33,NE,43,0.0,0.0,85,0.00,CLR,,0.00,WeatherDisplay:10.37,2014-01-01 05:36:00,
2014-01-01 00:41:00,47.6,43.3,30.33,NE,42,0.0,0.0,85,0.00,CLR,,0.00,WeatherDisplay:10.37,2014-01-01 05:41:00,
2014-01-01 00:46:00,47.6,43.3,30.33,NE,42,0.0,0.0,85,0.00,CLR,,0.00,WeatherDisplay:10.37,2014-01-01 05:46:00,
2014-01-01 00:51:00,47.6,43.3,30.33,NE,42,0.0,0.0,85,0.00,CLR,,0.00,WeatherDisplay:10.37,2014-01-01 05:51:00,
2014-01-01 00:56:00,47.6,43.6,30.33,NE,42,0.0,0.0,86,0.00,CLR,,0.00,WeatherDisplay:10.37,2014-01-01 05:56:00,
2014-01-01 01:01:00,47.5,43.5,30.33,NE,43,0.0,0.0,86,0.00,CLR,,0.00,WeatherDisplay:10.37,2014-01-01 06:01:00,
2014-01-01 01:06:00,47.4,43.4,30.34,NE,43,0.0,0.0,86,0.00,CLR,,0.00,WeatherDisplay:10.37,2014-01-01 06:06:00,
2014-01-01 01:11:00,47.4,43.4,30.33,NE,42,0.0,0.0,86,0.00,CLR,,0.00,WeatherDisplay:10.37,2014-01-01 06:11:00,
2014-01-01 01:14:00,47.4,43.4,30.33,NE,42,0.0,0.0,86,0.00,CLR,,0.00,WeatherDisplay:10.37,2014-01-01 06:14:00,
2014-01-01 01:19:00,47.4,43.4,30.33,NE,42,0.0,0.0,86,0.00,CLR,,0.00,WeatherDisplay:10.37,2014-01-01 06:19:00,
2014-01-01 01:24:00,47.3,43.3,30.34,NE,42,0.0,0.0,86,0.00,CLR,,0.00,WeatherDisplay:10.37,2014-01-01 06:24:00,
2014-01-01 01:29:00,47.3,43.3,30.35,North,355,0.0,0.0,86,0.00,CLR,,0.00,WeatherDisplay:10.37,2014-01-01 06:29:00,
2014-01-01 01:34:00,47.2,43.2,30.35,North,355,0.0,0.0,86,0.00,CLR,,0.00,WeatherDisplay:10.37,2014-01-01 06:34:00,
2014-01-01 01:39:00,47.2,43.2,30.34,North,355,0.0,0.0,86,0.00,CLR,,0.00,WeatherDisplay:10.37,2014-01-01 06:39:00,
2014-01-01 01:44:00,47.2,43.2,30.34,North,355,0.0,0.0,86,0.00,CLR,,0.00,WeatherDisplay:10.37,2014-01-01 06:44:00,
2014-01-01 01:49:00,47.1,42.8,30.34,North,355,0.0,0.0,85,0.00,CLR,,0.00,WeatherDisplay:10.37,2014-01-01 06:49:00,
2014-01-01 01:54:00,47.1,42.8,30.34,North,355,0.0,0.0,85,0.00,CLR,,0.00,WeatherDisplay:10.37,2014-01-01 06:54:00,
2014-01-01 01:55:00,47.1,42.8,30.34,North,355,0.0,0.0,85,0.00,CLR,,0.00,WeatherDisplay:10.37,2014-01-01 06:55:00,
2014-01-01 02:00:00,47.1,42.8,30.34,North,355,0.0,0.0,85,0.00,CLR,,0.00,WeatherDisplay:10.37,2014-01-01 07:00:00,
2014-01-01 02:05:00,47.1,42.8,30.35,North,355,0.0,0.0,85,0.00,CLR,,0.00,WeatherDisplay:10.37,2014-01-01 07:05:00,
2014-01-01 02:10:00,47.1,42.8,30.34,North,355,0.0,0.0,85,0.00,CLR,,0.00,WeatherDisplay:10.37,2014-01-01 07:10:00,
2014-01-01 02:15:00,47.1,42.8,30.35,North,355,0.0,0.0,85,0.00,CLR,,0.00,WeatherDisplay:10.37,2014-01-01 07:15:00,
2014-01-01 02:20:00,47.0,42.7,30.34,North,355,0.0,0.0,85,0.00,CLR,,0.00,WeatherDisplay:10.37,2014-01-01 07:20:00,
2014-01-01 02:22:00,47.0,42.7,30.34,North,355,0.0,0.0,85,0.00,CLR,,0.00,WeatherDisplay:10.37,2014-01-01 07:22:00,
2014-01-01 02:27:00,47.0,42.7,30.35,North,355,0.0,0.0,85,0.00,CLR,,0.00,WeatherDisplay:10.37,2014-01-01 07:27:00,
2014-01-01 02:32:00,47.0,42.7,30.34,North,355,0.0,0.0,85,0.00,CLR,,0.00,WeatherDisplay:10.37,2014-01-01 07:32:00,
2014-01-01 02:37:00,47.1,42.8,30.34,North,355,0.0,0.0,85,0.00,CLR,,0.00,WeatherDisplay:10.37,2014-01-01 07:37:00,
2014-01-01 02:42:00,47.0,42.7,30.34,North,355,0.0,0.0,85,0.00,CLR,,0.00,WeatherDisplay:10.37,2014-01-01 07:42:00,
2014-01-01 02:47:00,47.0,42.7,30.33,North,355,1.2,0.0,85,0.00,CLR,,0.00,WeatherDisplay:10.37,2014-01-01 07:47:00,
2014-01-01 02:52:00,47.0,42.7,30.32,NNE,22,3.5,3.5,85,0.00,CLR,,0.00,WeatherDisplay:10.37,2014-01-01 07:52:00,
2014-01-01 02:57:00,47.0,42.4,30.31,East,101,3.5,3.5,84,0.00,CLR,,0.00,WeatherDisplay:10.37,2014-01-01 07:57:00,
2014-01-01 03:00:00,47.0,42.4,30.31,East,101,0.0,0.0,84,0.00,CLR,,0.00,WeatherDisplay:10.37,2014-01-01 08:00:00,
2014-01-01 03:05:00,47.0,42.1,30.32,East,101,0.0,0.0,83,0.00,CLR,,0.00,WeatherDisplay:10.37,2014-01-01 08:05:00,
2014-01-01 03:10:00,47.1,42.2,30.32,East,101,0.0,0.0,83,0.00,CLR,,0.00,WeatherDisplay:10.37,2014-01-01 08:10:00,
2014-01-01 03:15:00,47.1,42.2,30.32,East,101,0.0,0.0,83,0.00,CLR,,0.00,WeatherDisplay:10.37,2014-01-01 08:15:00,
2014-01-01 03:20:00,47.1,42.2,30.32,East,101,0.0,0.0,83,0.00,CLR,,0.00,WeatherDisplay:10.37,2014-01-01 08:20:00,
2014-01-01 03:25:00,47.1,42.2,30.33,East,101,0.0,0.0,83,0.00,CLR,,0.00,WeatherDisplay:10.37,2014-01-01 08:25:00,
2014-01-01 03:30:00,47.2,42.6,30.33,East,101,0.0,0.0,84,0.00,CLR,,0.00,WeatherDisplay:10.37,2014-01-01 08:30:00,
2014-01-01 03:35:00,47.2,42.6,30.33,East,101,0.0,0.0,84,0.00,CLR,,0.00,WeatherDisplay:10.37,2014-01-01 08:35:00,
2014-01-01 03:40:00,47.2,42.6,30.32,East,101,0.0,0.0,84,0.00,CLR,,0.00,WeatherDisplay:10.37,2014-01-01 08:40:00,
2014-01-01 03:45:00,47.2,42.6,30.32,East,101,0.0,0.0,84,0.00,CLR,,0.00,WeatherDisplay:10.37,2014-01-01 08:45:00,
2014-01-01 03:50:00,47.2,42.9,30.33,East,101,0.0,0.0,85,0.00,CLR,,0.00,WeatherDisplay:10.37,2014-01-01 08:50:00,
2014-01-01 03:55:00,47.2,42.9,30.33,East,101,0.0,0.0,85,0.00,CLR,,0.00,WeatherDisplay:10.37,2014-01-01 08:55:00,
2014-01-01 04:00:00,47.2,42.9,30.33,East,101,0.0,0.0,85,0.00,CLR,,0.00,WeatherDisplay:10.37,2014-01-01 09:00:00,
2014-01-01 04:05:00,47.2,42.9,30.32,East,101,0.0,0.0,85,0.00,CLR,,0.00,WeatherDisplay:10.37,2014-01-01 09:05:00,
2014-01-01 04:10:00,47.2,42.9,30.32,East,101,0.0,0.0,85,0.00,CLR,,0.00,WeatherDisplay:10.37,2014-01-01 09:10:00,
2014-01-01 04:15:00,47.2,42.9,30.31,East,101,0.0,0.0,85,0.00,CLR,,0.00,WeatherDisplay:10.37,2014-01-01 09:15:00,
2014-01-01 04:20:00,47.1,42.8,30.31,East,101,0.0,0.0,85,0.00,CLR,,0.00,WeatherDisplay:10.37,2014-01-01 09:20:00,
2014-01-01 04:25:00,47.0,42.7,30.31,East,101,0.0,0.0,85,0.00,CLR,,0.00,WeatherDisplay:10.37,2014-01-01 09:25:00,
2014-01-01 04:30:00,47.0,42.7,30.31,North,11,0.0,0.0,85,0.00,CLR,,0.00,WeatherDisplay:10.37,2014-01-01 09:30:00,
2014-01-01 04:35:00,46.9,42.6,30.32,North,9,0.0,0.0,85,0.00,CLR,,0.00,WeatherDisplay:10.37,2014-01-01 09:35:00,
2014-01-01 04:40:00,46.8,42.5,30.32,North,10,0.0,0.0,85,0.00,CLR,,0.00,WeatherDisplay:10.37,2014-01-01 09:40:00,
2014-01-01 04:45:00,46.9,42.6,30.32,North,10,0.0,0.0,85,0.00,CLR,,0.00,WeatherDisplay:10.37,2014-01-01 09:45:00,
2014-01-01 04:50:00,46.8,42.5,30.30,North,11,0.0,0.0,85,0.00,CLR,,0.00,WeatherDisplay:10.37,2014-01-01 09:50:00,
2014-01-01 04:55:00,46.8,42.2,30.31,North,11,0.0,0.0,84,0.00,CLR,,0.00,WeatherDisplay:10.37,2014-01-01 09:55:00,
2014-01-01 05:00:00,46.8,42.2,30.31,North,10,0.0,0.0,84,0.00,CLR,,0.00,WeatherDisplay:10.37,2014-01-01 10:00:00,
2014-01-01 05:05:00,46.8,42.2,30.31,North,11,0.0,0.0,84,0.00,CLR,,0.00,WeatherDisplay:10.37,2014-01-01 10:05:00,
2014-01-01 05:10:00,46.9,42.6,30.31,North,11,0.0,0.0,85,0.00,CLR,,0.00,WeatherDisplay:10.37,2014-01-01 10:10:00,
2014-01-01 05:15:00,46.9,42.6,30.31,North,10,0.0,0.0,85,0.00,CLR,,0.00,WeatherDisplay:10.37,2014-01-01 10:15:00,
2014-01-01 05:20:00,46.8,42.5,30.31,North,11,0.0,0.0,85,0.00,CLR,,0.00,WeatherDisplay:10.37,2014-01-01 10:20:00,
2014-01-01 05:25:00,46.9,42.6,30.31,North,11,0.0,0.0,85,0.00,CLR,,0.00,WeatherDisplay:10.37,2014-01-01 10:25:00,
2014-01-01 05:30:00,46.9,42.6,30.30,North,11,0.0,0.0,85,0.00,CLR,,0.00,WeatherDisplay:10.37,2014-01-01 10:30:00,
2014-01-01 05:35:00,46.9,42.9,30.31,North,10,0.0,0.0,86,0.00,CLR,,0.00,WeatherDisplay:10.37,2014-01-01 10:35:00,
2014-01-01 05:40:00,46.9,42.9,30.30,North,11,0.0,0.0,86,0.00,CLR,,0.00,WeatherDisplay:10.37,2014-01-01 10:40:00,
2014-01-01 05:45:00,46.9,42.9,30.30,North,11,0.0,0.0,86,0.00,CLR,,0.00,WeatherDisplay:10.37,2014-01-01 10:45:00,
2014-01-01 05:50:00,46.9,42.9,30.30,North,11,0.0,0.0,86,0.00,CLR,,0.00,WeatherDisplay:10.37,2014-01-01 10:50:00,
2014-01-01 05:55:00,46.9,42.9,30.30,North,11,0.0,0.0,86,0.00,CLR,,0.00,WeatherDisplay:10.37,2014-01-01 10:55:00,
2014-01-01 06:00:00,46.9,43.2,30.30,North,11,0.0,0.0,87,0.00,CLR,,0.00,WeatherDisplay:10.37,2014-01-01 11:00:00,
2014-01-01 06:05:00,46.9,43.2,30.30,North,11,0.0,0.0,87,0.00,CLR,,0.00,WeatherDisplay:10.37,2014-01-01 11:05:00,
2014-01-01 06:10:00,46.9,43.2,30.30,North,11,0.0,0.0,87,0.00,CLR,,0.00,WeatherDisplay:10.37,2014-01-01 11:10:00,
2014-01-01 06:15:00,47.0,43.3,30.31,North,10,0.0,0.0,87,0.00,CLR,,0.00,WeatherDisplay:10.37,2014-01-01 11:15:00,
2014-01-01 06:20:00,47.0,43.3,30.31,North,10,0.0,0.0,87,0.00,CLR,,0.00,WeatherDisplay:10.37,2014-01-01 11:20:00,
2014-01-01 06:25:00,47.1,43.7,30.31,North,10,0.0,0.0,88,0.00,CLR,,0.00,WeatherDisplay:10.37,2014-01-01 11:25:00,
2014-01-01 06:30:00,47.1,43.7,30.32,North,11,0.0,0.0,88,0.00,CLR,,0.00,WeatherDisplay:10.37,2014-01-01 11:30:00,
2014-01-01 06:35:00,47.2,43.8,30.32,North,10,0.0,0.0,88,0.00,CLR,,0.00,WeatherDisplay:10.37,2014-01-01 11:35:00,
2014-01-01 06:40:00,47.2,43.8,30.32,North,10,0.0,0.0,88,0.00,CLR,,0.00,WeatherDisplay:10.37,2014-01-01 11:40:00,
2014-01-01 06:45:00,47.2,43.8,30.32,North,10,0.0,0.0,88,0.00,CLR,,0.00,WeatherDisplay:10.37,2014-01-01 11:45:00,
2014-01-01 06:50:00,47.3,43.9,30.32,North,10,0.0,0.0,88,0.00,CLR,,0.00,WeatherDisplay:10.37,2014-01-01 11:50:00,
2014-01-01 06:55:00,47.3,43.9,30.32,North,10,0.0,0.0,88,0.00,CLR,,0.00,WeatherDisplay:10.37,2014-01-01 11:55:00,
2014-01-01 07:00:00,47.3,43.9,30.31,North,10,0.0,0.0,88,0.00,CLR,,0.00,WeatherDisplay:10.37,2014-01-01 12:00:00,
2014-01-01 07:05:00,47.4,44.0,30.32,North,10,0.0,0.0,88,0.00,CLR,,0.00,WeatherDisplay:10.37,2014-01-01 12:05:00,
2014-01-01 07:10:00,47.4,44.0,30.32,North,10,0.0,0.0,88,0.00,CLR,,0.00,WeatherDisplay:10.37,2014-01-01 12:10:00,
2014-01-01 07:15:00,47.4,44.0,30.32,North,10,0.0,0.0,88,0.00,CLR,,0.00,WeatherDisplay:10.37,2014-01-01 12:15:00,
2014-01-01 07:20:00,47.5,45.3,30.32,North,10,0.0,0.0,92,0.00,CLR,,0.00,WeatherDisplay:10.37,2014-01-01 12:20:00,
2014-01-01 07:25:00,47.5,45.3,30.32,North,10,0.0,0.0,92,0.00,CLR,,0.00,WeatherDisplay:10.37,2014-01-01 12:25:00,
2014-01-01 07:30:00,47.5,45.3,30.32,North,10,0.0,0.0,92,0.00,CLR,,0.00,WeatherDisplay:10.37,2014-01-01 12:30:00,
2014-01-01 07:35:00,47.5,44.1,30.32,North,10,0.0,0.0,88,0.00,CLR,,0.00,WeatherDisplay:10.37,2014-01-01 12:35:00,
2014-01-01 07:40:00,47.6,44.2,30.32,North,10,0.0,0.0,88,0.00,CLR,,0.00,WeatherDisplay:10.37,2014-01-01 12:40:00,
2014-01-01 07:45:00,47.6,44.2,30.32,North,10,0.0,0.0,88,0.00,CLR,,0.00,WeatherDisplay:10.37,2014-01-01 12:45:00,
2014-01-01 07:50:00,47.5,44.1,30.32,North,10,0.0,0.0,88,0.00,CLR,,0.00,WeatherDisplay:10.37,2014-01-01 12:50:00,
2014-01-01 07:55:00,47.5,44.1,30.32,North,10,0.0,0.0,88,0.00,CLR,,0.00,WeatherDisplay:10.37,2014-01-01 12:55:00,
2014-01-01 08:00:00,47.5,44.1,30.32,North,10,0.0,0.0,88,0.00,CLR,,0.00,WeatherDisplay:10.37,2014-01-01 13:00:00,
2014-01-01 08:05:00,47.5,44.1,30.32,North,10,0.0,0.0,88,0.00,CLR,,0.00,WeatherDisplay:10.37,2014-01-01 13:05:00,
2014-01-01 08:10:00,47.5,44.4,30.32,North,11,0.0,0.0,89,0.00,CLR,,0.00,WeatherDisplay:10.37,2014-01-01 13:10:00,
2014-01-01 08:15:00,47.5,44.4,30.32,North,11,0.0,0.0,89,0.00,CLR,,0.00,WeatherDisplay:10.37,2014-01-01 13:15:00,
2014-01-01 08:20:00,47.5,44.1,30.33,North,11,0.0,0.0,88,0.00,CLR,,0.00,WeatherDisplay:10.37,2014-01-01 13:20:00,
2014-01-01 08:25:00,47.5,44.1,30.32,North,11,2.3,2.3,88,0.00,CLR,,0.00,WeatherDisplay:10.37,2014-01-01 13:25:00,
2014-01-01 08:30:00,47.6,44.2,30.32,North,10,0.0,0.0,88,0.00,CLR,,0.00,WeatherDisplay:10.37,2014-01-01 13:30:00,
2014-01-01 08:35:00,47.6,44.5,30.33,North,10,0.0,0.0,89,0.00,CLR,,0.00,WeatherDisplay:10.37,2014-01-01 13:35:00,
2014-01-01 08:40:00,47.7,44.6,30.33,North,11,0.0,0.0,89,0.00,CLR,,0.00,WeatherDisplay:10.37,2014-01-01 13:40:00,
2014-01-01 08:45:00,47.7,44.6,30.33,North,11,0.0,0.0,89,0.00,CLR,,0.00,WeatherDisplay:10.37,2014-01-01 13:45:00,
2014-01-01 08:50:00,47.8,44.7,30.32,NNE,22,1.2,0.0,89,0.00,CLR,,0.00,WeatherDisplay:10.37,2014-01-01 13:50:00,
2014-01-01 08:55:00,47.8,44.7,30.32,NNE,25,0.0,0.0,89,0.00,CLR,,0.00,WeatherDisplay:10.37,2014-01-01 13:55:00,
2014-01-01 09:00:00,47.9,44.8,30.32,NNE,25,0.0,0.0,89,0.00,CLR,,0.00,WeatherDisplay:10.37,2014-01-01 14:00:00,
2014-01-01 09:05:00,47.9,44.8,30.33,NNE,25,3.5,3.5,89,0.00,CLR,,0.00,WeatherDisplay:10.37,2014-01-01 14:05:00,
2014-01-01 09:10:00,48.0,44.9,30.32,NNE,25,0.0,0.0,89,0.00,CLR,,0.00,WeatherDisplay:10.37,2014-01-01 14:10:00,
2014-01-01 09:15:00,48.1,45.3,30.32,NNE,25,1.2,1.2,90,0.00,CLR,,0.00,WeatherDisplay:10.37,2014-01-01 14:15:00,
2014-01-01 09:20:00,48.3,45.5,30.32,NNE,25,0.0,0.0,90,0.00,CLR,,0.00,WeatherDisplay:10.37,2014-01-01 14:20:00,
2014-01-01 09:25:00,48.4,45.6,30.32,NNE,26,0.0,0.0,90,0.00,CLR,,0.00,WeatherDisplay:10.37,2014-01-01 14:25:00,
2014-01-01 09:30:00,48.5,45.7,30.33,NNE,26,0.0,0.0,90,0.00,CLR,,0.00,WeatherDisplay:10.37,2014-01-01 14:30:00,
2014-01-01 09:35:00,48.7,45.9,30.33,NNE,26,0.0,0.0,90,0.00,CLR,,0.00,WeatherDisplay:10.37,2014-01-01 14:35:00,
2014-01-01 09:40:00,48.8,46.0,30.33,NNE,26,0.0,0.0,90,0.00,CLR,,0.00,WeatherDisplay:10.37,2014-01-01 14:40:00,
2014-01-01 09:45:00,49.0,46.2,30.33,NNE,26,0.0,0.0,90,0.00,CLR,,0.00,WeatherDisplay:10.37,2014-01-01 14:45:00,
2014-01-01 09:50:00,49.1,46.0,30.33,NNE,26,0.0,0.0,89,0.00,CLR,,0.00,WeatherDisplay:10.37,2014-01-01 14:50:00,
2014-01-01 09:55:00,49.2,46.1,30.33,NNE,30,3.5,3.5,89,0.00,CLR,,0.00,WeatherDisplay:10.37,2014-01-01 14:55:00,
2014-01-01 10:00:00,49.3,46.2,30.33,NNE,30,0.0,0.0,89,0.00,CLR,,0.00,WeatherDisplay:10.37,2014-01-01 15:00:00,
2014-01-01 10:05:00,49.4,46.6,30.33,NNE,32,1.2,0.0,90,0.00,CLR,,0.00,WeatherDisplay:10.37,2014-01-01 15:05:00,
2014-01-01 10:10:00,49.5,46.7,30.33,NNE,33,0.0,0.0,90,0.00,CLR,,0.00,WeatherDisplay:10.37,2014-01-01 15:10:00,
2014-01-01 10:15:00,49.6,46.8,30.33,NE,36,3.5,3.5,90,0.00,CLR,,0.00,WeatherDisplay:10.37,2014-01-01 15:15:00,
2014-01-01 10:20:00,49.6,46.8,30.33,NE,36,0.0,0.0,90,0.01,RA,,0.01,WeatherDisplay:10.37,2014-01-01 15:20:00,
2014-01-01 10:25:00,49.7,46.9,30.33,NE,35,0.0,0.0,90,0.01,RA,,0.01,WeatherDisplay:10.37,2014-01-01 15:25:00,
2014-01-01 10:30:00,49.7,47.2,30.33,NE,36,0.0,0.0,91,0.01,,,0.01,WeatherDisplay:10.37,2014-01-01 15:30:00,
2014-01-01 10:35:00,49.7,47.2,30.32,NE,36,3.5,3.5,91,0.01,CLR,,0.01,WeatherDisplay:10.37,2014-01-01 15:35:00,
2014-01-01 10:40:00,49.8,47.3,30.32,NE,44,4.6,4.6,91,0.01,CLR,,0.01,WeatherDisplay:10.37,2014-01-01 15:40:00,
2014-01-01 10:45:00,49.7,47.2,30.31,NE,40,3.5,3.5,91,0.01,CLR,,0.01,WeatherDisplay:10.37,2014-01-01 15:45:00,
2014-01-01 10:50:00,49.7,47.2,30.31,NE,41,3.5,3.5,91,0.01,CLR,,0.01,WeatherDisplay:10.37,2014-01-01 15:50:00,
2014-01-01 10:55:00,49.7,47.2,30.32,NE,44,3.0,3.0,91,0.01,CLR,,0.01,WeatherDisplay:10.37,2014-01-01 15:55:00,
2014-01-01 11:00:00,49.7,47.2,30.32,NE,46,0.0,0.0,91,0.01,CLR,,0.01,WeatherDisplay:10.37,2014-01-01 16:00:00,
2014-01-01 11:05:00,49.6,47.1,30.31,NE,46,1.2,0.0,91,0.01,CLR,,0.01,WeatherDisplay:10.37,2014-01-01 16:05:00,
2014-01-01 11:10:00,49.7,47.5,30.31,NE,46,0.0,0.0,92,0.01,CLR,,0.01,WeatherDisplay:10.37,2014-01-01 16:10:00,
2014-01-01 11:15:00,49.7,47.5,30.32,NE,47,0.0,0.0,92,0.01,CLR,,0.01,WeatherDisplay:10.37,2014-01-01 16:15:00,
2014-01-01 11:20:00,49.7,47.5,30.31,NE,46,0.0,0.0,92,0.01,RA,,0.02,WeatherDisplay:10.37,2014-01-01 16:20:00,
2014-01-01 11:25:00,49.8,47.6,30.31,NE,47,0.0,0.0,92,0.01,RA,,0.02,WeatherDisplay:10.37,2014-01-01 16:25:00,
2014-01-01 11:30:00,49.8,47.6,30.31,NE,47,0.0,0.0,92,0.01,,,0.02,WeatherDisplay:10.37,2014-01-01 16:30:00,
2014-01-01 11:35:00,49.9,47.7,30.31,NE,47,0.0,0.0,92,0.02,RA,,0.03,WeatherDisplay:10.37,2014-01-01 16:35:00,
2014-01-01 11:40:00,49.9,47.7,30.31,NE,45,1.2,0.0,92,0.02,RA,,0.03,WeatherDisplay:10.37,2014-01-01 16:40:00,
2014-01-01 11:45:00,50.1,48.2,30.30,NE,46,0.0,0.0,93,0.03,RA,,0.04,WeatherDisplay:10.37,2014-01-01 16:45:00,
2014-01-01 11:50:00,50.1,48.2,30.30,NE,48,0.0,0.0,93,0.03,RA,,0.04,WeatherDisplay:10.37,2014-01-01 16:50:00,
2014-01-01 11:55:00,50.1,48.2,30.30,NE,48,0.0,0.0,93,0.03,,,0.04,WeatherDisplay:10.37,2014-01-01 16:55:00,
2014-01-01 12:00:00,50.1,48.2,30.29,NE,48,0.0,0.0,93,0.03,CLR,,0.04,WeatherDisplay:10.37,2014-01-01 17:00:00,
2014-01-01 12:05:00,50.2,48.3,30.28,NE,48,0.0,0.0,93,0.03,CLR,,0.04,WeatherDisplay:10.37,2014-01-01 17:05:00,
2014-01-01 12:10:00,50.3,48.4,30.28,NE,48,0.0,0.0,93,0.03,CLR,,0.04,WeatherDisplay:10.37,2014-01-01 17:10:00,
2014-01-01 12:15:00,50.4,48.5,30.28,NE,48,0.0,0.0,93,0.03,CLR,,0.04,WeatherDisplay:10.37,2014-01-01 17:15:00,
2014-01-01 12:20:00,50.5,48.6,30.28,NE,48,0.0,0.0,93,0.02,CLR,,0.04,WeatherDisplay:10.37,2014-01-01 17:20:00,
2014-01-01 12:25:00,50.6,48.7,30.27,NE,48,2.3,2.3,93,0.03,RA,,0.05,WeatherDisplay:10.37,2014-01-01 17:25:00,
2014-01-01 12:30:00,50.7,48.7,30.27,NE,48,0.0,0.0,93,0.03,RA,,0.05,WeatherDisplay:10.37,2014-01-01 17:30:00,
2014-01-01 12:35:00,50.7,48.7,30.27,NE,49,0.0,0.0,93,0.02,CLR,,0.05,WeatherDisplay:10.37,2014-01-01 17:35:00,
2014-01-01 12:40:00,50.9,49.2,30.28,NE,49,0.0,0.0,94,0.02,CLR,,0.05,WeatherDisplay:10.37,2014-01-01 17:40:00,
2014-01-01 12:45:00,51.0,49.3,30.28,NE,48,0.0,0.0,94,0.01,CLR,,0.05,WeatherDisplay:10.37,2014-01-01 17:45:00,
2014-01-01 12:50:00,51.0,49.3,30.28,NE,48,0.0,0.0,94,0.01,CLR,,0.05,WeatherDisplay:10.37,2014-01-01 17:50:00,
2014-01-01 12:55:00,51.1,49.4,30.27,NE,49,0.0,0.0,94,0.01,CLR,,0.05,WeatherDisplay:10.37,2014-01-01 17:55:00,
2014-01-01 13:00:00,51.1,49.4,30.27,NE,49,0.0,0.0,94,0.01,CLR,,0.05,WeatherDisplay:10.37,2014-01-01 18:00:00,
2014-01-01 13:05:00,51.2,49.5,30.26,NE,48,2.3,2.3,94,0.01,CLR,,0.05,WeatherDisplay:10.37,2014-01-01 18:05:00,
2014-01-01 13:10:00,51.2,49.5,30.26,NE,48,0.0,0.0,94,0.01,CLR,,0.05,WeatherDisplay:10.37,2014-01-01 18:10:00,
2014-01-01 13:15:00,51.2,49.5,30.25,NE,48,0.0,0.0,94,0.02,RA,,0.06,WeatherDisplay:10.37,2014-01-01 18:15:00,
2014-01-01 13:20:00,51.1,49.4,30.25,NE,49,0.0,0.0,94,0.02,RA,,0.06,WeatherDisplay:10.37,2014-01-01 18:20:00,
2014-01-01 13:25:00,51.1,49.4,30.25,NE,49,0.0,0.0,94,0.02,RA,,0.07,WeatherDisplay:10.37,2014-01-01 18:25:00,
2014-01-01 13:30:00,51.1,49.4,30.25,NE,49,0.0,0.0,94,0.03,RA,,0.08,WeatherDisplay:10.37,2014-01-01 18:30:00,
2014-01-01 13:35:00,51.2,49.5,30.25,NE,49,0.0,0.0,94,0.03,RA,,0.08,WeatherDisplay:10.37,2014-01-01 18:35:00,
2014-01-01 13:40:00,51.4,49.7,30.25,NE,49,0.0,0.0,94,0.03,CLR,,0.08,WeatherDisplay:10.37,2014-01-01 18:40:00,
2014-01-01 13:45:00,51.5,49.8,30.24,NE,48,0.0,0.0,94,0.03,CLR,,0.08,WeatherDisplay:10.37,2014-01-01 18:45:00,
2014-01-01 13:50:00,51.6,49.9,30.24,NE,49,0.0,0.0,94,0.03,CLR,,0.08,WeatherDisplay:10.37,2014-01-01 18:50:00,
2014-01-01 13:55:00,51.6,49.9,30.24,NE,48,0.0,0.0,94,0.03,CLR,,0.08,WeatherDisplay:10.37,2014-01-01 18:55:00,
2014-01-01 14:00:00,51.6,49.9,30.24,NE,48,0.0,0.0,94,0.04,RA,,0.09,WeatherDisplay:10.37,2014-01-01 19:00:00,
2014-01-01 14:05:00,51.7,50.0,30.23,NE,49,1.2,0.0,94,0.04,RA,,0.09,WeatherDisplay:10.37,2014-01-01 19:05:00,
2014-01-01 14:10:00,51.8,50.4,30.23,NE,49,0.0,0.0,95,0.04,,,0.09,WeatherDisplay:10.37,2014-01-01 19:10:00,
2014-01-01 14:15:00,51.9,50.5,30.24,NE,48,0.0,0.0,95,0.04,RA,,0.10,WeatherDisplay:10.37,2014-01-01 19:15:00,
2014-01-01 14:20:00,52.0,50.6,30.23,NE,48,0.0,0.0,95,0.04,RA,,0.10,WeatherDisplay:10.37,2014-01-01 19:20:00,
2014-01-01 14:25:00,52.0,50.6,30.23,NE,49,0.0,0.0,95,0.03,,,0.10,WeatherDisplay:10.37,2014-01-01 19:25:00,
2014-01-01 14:30:00,52.1,50.7,30.23,NE,48,0.0,0.0,95,0.02,CLR,,0.10,WeatherDisplay:10.37,2014-01-01 19:30:00,
2014-01-01 14:35:00,52.1,50.7,30.23,NE,49,0.0,0.0,95,0.02,CLR,,0.10,WeatherDisplay:10.37,2014-01-01 19:35:00,
2014-01-01 14:40:00,52.2,50.8,30.23,NE,49,0.0,0.0,95,0.02,CLR,,0.11,WeatherDisplay:10.37,2014-01-01 19:40:00,
2014-01-01 14:45:00,52.2,50.8,30.23,NE,48,0.0,0.0,95,0.03,RA,,0.11,WeatherDisplay:10.37,2014-01-01 19:45:00,
2014-01-01 14:50:00,52.2,50.8,30.23,NE,49,0.0,0.0,95,0.03,RA,,0.12,WeatherDisplay:10.37,2014-01-01 19:50:00,
2014-01-01 14:55:00,52.3,50.9,30.23,NE,48,0.0,0.0,95,0.04,RA,,0.12,WeatherDisplay:10.37,2014-01-01 19:55:00,
2014-01-01 15:00:00,52.3,50.9,30.23,NE,49,0.0,0.0,95,0.04,RA,,0.13,WeatherDisplay:10.37,2014-01-01 20:00:00,
2014-01-01 15:05:00,52.4,51.0,30.22,NE,48,0.0,0.0,95,0.04,RA,,0.13,WeatherDisplay:10.37,2014-01-01 20:05:00,
2014-01-01 15:10:00,52.4,51.0,30.22,NE,49,0.0,0.0,95,0.04,,,0.13,WeatherDisplay:10.37,2014-01-01 20:10:00,
2014-01-01 15:15:00,52.5,51.1,30.22,NE,48,0.0,0.0,95,0.04,RA,,0.14,WeatherDisplay:10.37,2014-01-01 20:15:00,
2014-01-01 15:20:00,52.6,51.2,30.23,NE,48,0.0,0.0,95,0.04,RA,,0.14,WeatherDisplay:10.37,2014-01-01 20:20:00,
2014-01-01 15:25:00,52.6,51.2,30.23,NE,48,0.0,0.0,95,0.04,,,0.14,WeatherDisplay:10.37,2014-01-01 20:25:00,
2014-01-01 15:30:00,52.7,51.3,30.23,NE,49,0.0,0.0,95,0.04,CLR,,0.14,WeatherDisplay:10.37,2014-01-01 20:30:00,
2014-01-01 15:35:00,52.7,51.3,30.23,NE,49,0.0,0.0,95,0.04,CLR,,0.14,WeatherDisplay:10.37,2014-01-01 20:35:00,
2014-01-01 15:40:00,52.8,51.4,30.22,NE,48,0.0,0.0,95,0.03,CLR,,0.14,WeatherDisplay:10.37,2014-01-01 20:40:00,
2014-01-01 15:45:00,52.8,51.4,30.23,NE,48,0.0,0.0,95,0.03,CLR,,0.14,WeatherDisplay:10.37,2014-01-01 20:45:00,
2014-01-01 15:50:00,52.8,51.4,30.23,NE,49,0.0,0.0,95,0.02,CLR,,0.14,WeatherDisplay:10.37,2014-01-01 20:50:00,
2014-01-01 15:55:00,52.9,51.5,30.23,NE,49,0.0,0.0,95,0.02,CLR,,0.14,WeatherDisplay:10.37,2014-01-01 20:55:00,
2014-01-01 16:00:00,52.9,51.5,30.23,NE,48,0.0,0.0,95,0.01,CLR,,0.14,WeatherDisplay:10.37,2014-01-01 21:00:00,
2014-01-01 16:05:00,52.9,51.5,30.22,NE,49,0.0,0.0,95,0.01,CLR,,0.14,WeatherDisplay:10.37,2014-01-01 21:05:00,
2014-01-01 16:10:00,52.9,51.5,30.22,NE,48,0.0,0.0,95,0.02,RA,,0.15,WeatherDisplay:10.37,2014-01-01 21:10:00,
2014-01-01 16:15:00,52.9,51.5,30.22,NE,49,0.0,0.0,95,0.01,RA,,0.15,WeatherDisplay:10.37,2014-01-01 21:15:00,
2014-01-01 16:20:00,52.9,51.5,30.22,NE,48,0.0,0.0,95,0.02,RA,,0.16,WeatherDisplay:10.37,2014-01-01 21:20:00,
2014-01-01 16:25:00,52.8,51.4,30.21,NE,48,0.0,0.0,95,0.02,RA,,0.16,WeatherDisplay:10.37,2014-01-01 21:25:00,
2014-01-01 16:30:00,52.8,51.4,30.21,NE,48,0.0,0.0,95,0.02,CLR,,0.16,WeatherDisplay:10.37,2014-01-01 21:30:00,
2014-01-01 16:35:00,52.8,51.4,30.22,NE,48,1.2,0.0,95,0.03,RA,,0.17,WeatherDisplay:10.37,2014-01-01 21:35:00,
2014-01-01 16:40:00,52.7,51.3,30.22,NE,48,0.0,0.0,95,0.03,RA,,0.17,WeatherDisplay:10.37,2014-01-01 21:40:00,
2014-01-01 16:45:00,52.7,51.3,30.22,NE,48,0.0,0.0,95,0.04,RA,,0.18,WeatherDisplay:10.37,2014-01-01 21:45:00,
2014-01-01 16:50:00,52.7,51.3,30.22,NE,49,0.0,0.0,95,0.04,RA,,0.18,WeatherDisplay:10.37,2014-01-01 21:50:00,
2014-01-01 16:55:00,52.7,51.3,30.22,NE,48,0.0,0.0,95,0.04,CLR,,0.18,WeatherDisplay:10.37,2014-01-01 21:55:00,
2014-01-01 17:00:00,52.7,51.3,30.21,NE,48,0.0,0.0,95,0.04,CLR,,0.18,WeatherDisplay:10.37,2014-01-01 22:00:00,
2014-01-01 17:05:00,52.6,51.2,30.21,NE,49,0.0,0.0,95,0.04,CLR,,0.18,WeatherDisplay:10.37,2014-01-01 22:05:00,
2014-01-01 17:10:00,52.7,51.3,30.21,NE,48,0.0,0.0,95,0.03,CLR,,0.18,WeatherDisplay:10.37,2014-01-01 22:10:00,
2014-01-01 17:15:00,52.7,51.3,30.21,NE,48,0.0,0.0,95,0.03,CLR,,0.18,WeatherDisplay:10.37,2014-01-01 22:15:00,
2014-01-01 17:20:00,52.7,51.3,30.21,NE,49,0.0,0.0,95,0.02,CLR,,0.18,WeatherDisplay:10.37,2014-01-01 22:20:00,
2014-01-01 17:25:00,52.6,51.2,30.21,NE,48,0.0,0.0,95,0.02,CLR,,0.18,WeatherDisplay:10.37,2014-01-01 22:25:00,
2014-01-01 17:30:00,52.6,51.2,30.21,NE,49,0.0,0.0,95,0.02,CLR,,0.18,WeatherDisplay:10.37,2014-01-01 22:30:00,
2014-01-01 17:35:00,52.6,51.2,30.21,NE,49,0.0,0.0,95,0.01,CLR,,0.18,WeatherDisplay:10.37,2014-01-01 22:35:00,
2014-01-01 17:40:00,52.6,51.2,30.21,NE,49,0.0,0.0,95,0.01,CLR,,0.18,WeatherDisplay:10.37,2014-01-01 22:40:00,
2014-01-01 17:45:00,52.6,51.2,30.21,NE,49,0.0,0.0,95,0.00,CLR,,0.18,WeatherDisplay:10.37,2014-01-01 22:45:00,
2014-01-01 17:50:00,52.6,51.2,30.21,NE,49,0.0,0.0,95,0.00,CLR,,0.18,WeatherDisplay:10.37,2014-01-01 22:50:00,
2014-01-01 17:55:00,52.6,51.2,30.21,NE,48,0.0,0.0,95,0.00,CLR,,0.18,WeatherDisplay:10.37,2014-01-01 22:55:00,
2014-01-01 18:00:00,52.6,51.2,30.21,NE,49,0.0,0.0,95,0.00,CLR,,0.18,WeatherDisplay:10.37,2014-01-01 23:00:00,
2014-01-01 18:05:00,52.6,51.2,30.20,NE,49,0.0,0.0,95,0.00,CLR,,0.18,WeatherDisplay:10.37,2014-01-01 23:05:00,
2014-01-01 18:10:00,52.5,51.1,30.20,NE,48,0.0,0.0,95,0.00,CLR,,0.18,WeatherDisplay:10.37,2014-01-01 23:10:00,
2014-01-01 18:15:00,52.5,51.1,30.20,NE,49,0.0,0.0,95,0.00,CLR,,0.18,WeatherDisplay:10.37,2014-01-01 23:15:00,
2014-01-01 18:20:00,52.5,51.1,30.20,NE,49,0.0,0.0,95,0.00,CLR,,0.18,WeatherDisplay:10.37,2014-01-01 23:20:00,
2014-01-01 18:25:00,52.5,51.1,30.20,NE,49,0.0,0.0,95,0.00,CLR,,0.18,WeatherDisplay:10.37,2014-01-01 23:25:00,
2014-01-01 18:30:00,52.5,51.1,30.20,NE,48,0.0,0.0,95,0.01,RA,,0.19,WeatherDisplay:10.37,2014-01-01 23:30:00,
2014-01-01 18:35:00,52.5,51.1,30.21,NE,48,0.0,0.0,95,0.01,RA,,0.19,WeatherDisplay:10.37,2014-01-01 23:35:00,
2014-01-01 18:40:00,52.5,51.1,30.21,NE,48,0.0,0.0,95,0.01,,,0.19,WeatherDisplay:10.37,2014-01-01 23:40:00,
2014-01-01 18:45:00,52.5,51.1,30.21,NE,49,0.0,0.0,95,0.01,CLR,,0.19,WeatherDisplay:10.37,2014-01-01 23:45:00,
2014-01-01 18:50:00,52.5,51.1,30.20,NE,49,1.0,0.0,95,0.01,CLR,,0.19,WeatherDisplay:10.37,2014-01-01 23:50:00,
2014-01-01 18:55:00,52.5,51.1,30.20,NE,48,0.0,0.0,95,0.01,CLR,,0.19,WeatherDisplay:10.37,2014-01-01 23:55:00,
2014-01-01 19:00:00,52.5,52.5,30.21,NE,49,0.0,0.0,100,0.01,CLR,,0.19,WeatherDisplay:10.37,2014-01-02 00:00:00,
2014-01-01 19:05:00,52.5,52.5,30.21,NE,48,0.0,0.0,100,0.02,RA,,0.20,WeatherDisplay:10.37,2014-01-02 00:05:00,
2014-01-01 19:10:00,52.5,52.5,30.20,NE,49,0.0,0.0,100,0.02,RA,,0.20,WeatherDisplay:10.37,2014-01-02 00:10:00,
2014-01-01 19:15:00,52.5,52.5,30.20,NE,49,0.0,0.0,100,0.02,CLR,,0.20,WeatherDisplay:10.37,2014-01-02 00:15:00,
2014-01-01 19:20:00,52.5,52.5,30.20,NE,49,0.0,0.0,100,0.02,CLR,,0.20,WeatherDisplay:10.37,2014-01-02 00:20:00,
2014-01-01 19:25:00,52.4,52.4,30.20,NE,49,3.5,3.5,100,0.02,CLR,,0.20,WeatherDisplay:10.37,2014-01-02 00:25:00,
2014-01-01 19:30:00,52.4,52.4,30.20,NE,49,0.0,0.0,100,0.01,CLR,,0.20,WeatherDisplay:10.37,2014-01-02 00:30:00,
2014-01-01 19:35:00,52.4,52.4,30.20,NE,49,0.0,0.0,100,0.01,CLR,,0.20,WeatherDisplay:10.37,2014-01-02 00:35:00,
2014-01-01 19:40:00,52.4,52.4,30.20,NE,49,0.0,0.0,100,0.01,CLR,,0.20,WeatherDisplay:10.37,2014-01-02 00:40:00,
2014-01-01 19:45:00,52.4,52.4,30.19,NE,49,0.0,0.0,100,0.01,CLR,,0.20,WeatherDisplay:10.37,2014-01-02 00:45:00,
2014-01-01 19:50:00,52.4,52.4,30.19,NE,49,2.3,2.3,100,0.01,CLR,,0.20,WeatherDisplay:10.37,2014-01-02 00:50:00,
2014-01-01 19:55:00,52.3,52.3,30.19,NE,49,0.0,0.0,100,0.01,CLR,,0.20,WeatherDisplay:10.37,2014-01-02 00:55:00,
2014-01-01 20:00:00,52.3,52.3,30.19,NE,49,0.0,0.0,100,0.01,CLR,,0.20,WeatherDisplay:10.37,2014-01-02 01:00:00,
2014-01-01 20:05:00,52.2,52.2,30.19,NE,49,0.0,0.0,100,0.00,CLR,,0.20,WeatherDisplay:10.37,2014-01-02 01:05:00,
2014-01-01 20:10:00,52.2,52.2,30.19,NE,49,0.0,0.0,100,0.00,CLR,,0.20,WeatherDisplay:10.37,2014-01-02 01:10:00,
2014-01-01 20:15:00,52.2,52.2,30.18,NE,49,0.0,0.0,100,0.00,CLR,,0.20,WeatherDisplay:10.37,2014-01-02 01:15:00,
2014-01-01 20:20:00,52.1,52.1,30.18,NE,49,2.3,2.3,100,0.00,CLR,,0.20,WeatherDisplay:10.37,2014-01-02 01:20:00,
2014-01-01 20:25:00,52.1,52.1,30.18,NE,51,0.0,0.0,100,0.00,CLR,,0.20,WeatherDisplay:10.37,2014-01-02 01:25:00,
2014-01-01 20:30:00,52.1,52.1,30.18,NE,51,0.0,0.0,100,0.00,CLR,,0.20,WeatherDisplay:10.37,2014-01-02 01:30:00,
2014-01-01 20:35:00,52.0,52.0,30.18,NE,51,0.0,0.0,100,0.00,CLR,,0.20,WeatherDisplay:10.37,2014-01-02 01:35:00,
2014-01-01 20:40:00,52.1,52.1,30.18,NE,51,0.0,0.0,100,0.00,CLR,,0.20,WeatherDisplay:10.37,2014-01-02 01:40:00,
2014-01-01 20:45:00,52.1,52.1,30.18,NE,51,0.0,0.0,100,0.00,CLR,,0.20,WeatherDisplay:10.37,2014-01-02 01:45:00,
2014-01-01 20:50:00,52.1,52.1,30.18,NE,51,1.2,0.0,100,0.00,CLR,,0.20,WeatherDisplay:10.37,2014-01-02 01:50:00,
2014-01-01 20:55:00,52.1,52.1,30.18,NE,50,0.0,0.0,100,0.00,CLR,,0.20,WeatherDisplay:10.37,2014-01-02 01:55:00,
2014-01-01 21:00:00,52.1,52.1,30.18,NE,50,0.0,0.0,100,0.00,CLR,,0.20,WeatherDisplay:10.37,2014-01-02 02:00:00,
2014-01-01 21:05:00,52.1,52.1,30.18,NE,51,0.0,0.0,100,0.00,CLR,,0.21,WeatherDisplay:10.37,2014-01-02 02:05:00,
2014-01-01 21:10:00,52.1,52.1,30.17,NE,51,0.0,0.0,100,0.01,RA,,0.21,WeatherDisplay:10.37,2014-01-02 02:10:00,
2014-01-01 21:15:00,52.1,52.1,30.17,NE,49,0.0,0.0,100,0.01,RA,,0.21,WeatherDisplay:10.37,2014-01-02 02:15:00,
2014-01-01 21:20:00,52.1,52.1,30.17,NE,50,0.0,0.0,100,0.01,CLR,,0.21,WeatherDisplay:10.37,2014-01-02 02:20:00,
2014-01-01 21:25:00,52.1,52.1,30.16,NE,50,0.0,0.0,100,0.02,RA,,0.22,WeatherDisplay:10.37,2014-01-02 02:25:00,
2014-01-01 21:30:00,52.1,52.1,30.16,NE,51,0.0,0.0,100,0.02,RA,,0.22,WeatherDisplay:10.37,2014-01-02 02:30:00,
2014-01-01 21:35:00,52.1,52.1,30.17,NE,51,0.0,0.0,100,0.02,CLR,,0.22,WeatherDisplay:10.37,2014-01-02 02:35:00,
2014-01-01 21:40:00,52.1,52.1,30.16,NE,51,0.0,0.0,100,0.03,RA,,0.23,WeatherDisplay:10.37,2014-01-02 02:40:00,
2014-01-01 21:45:00,52.1,52.1,30.15,NE,51,1.2,1.2,100,0.03,RA,,0.23,WeatherDisplay:10.37,2014-01-02 02:45:00,
2014-01-01 21:50:00,52.1,52.1,30.15,NE,51,3.5,0.0,100,0.03,,,0.23,WeatherDisplay:10.37,2014-01-02 02:50:00,
2014-01-01 21:55:00,52.1,52.1,30.15,NE,51,0.0,0.0,100,0.03,CLR,,0.23,WeatherDisplay:10.37,2014-01-02 02:55:00,
2014-01-01 22:00:00,52.1,52.1,30.15,NE,51,0.0,0.0,100,0.04,RA,,0.24,WeatherDisplay:10.37,2014-01-02 03:00:00,
2014-01-01 22:05:00,52.1,52.1,30.14,NE,51,1.2,0.0,100,0.04,RA,,0.24,WeatherDisplay:10.37,2014-01-02 03:05:00,
2014-01-01 22:10:00,52.1,52.1,30.14,NE,55,0.0,0.0,100,0.04,RA,,0.25,WeatherDisplay:10.37,2014-01-02 03:10:00,
2014-01-01 22:15:00,52.1,52.1,30.15,NE,55,0.0,0.0,100,0.04,RA,,0.25,WeatherDisplay:10.37,2014-01-02 03:15:00,
2014-01-01 22:20:00,52.2,52.2,30.15,NE,55,0.0,0.0,100,0.04,CLR,,0.25,WeatherDisplay:10.37,2014-01-02 03:20:00,
2014-01-01 22:25:00,52.2,52.2,30.14,NE,55,0.0,0.0,100,0.03,CLR,,0.25,WeatherDisplay:10.37,2014-01-02 03:25:00,
2014-01-01 22:30:00,52.2,52.2,30.15,NE,55,0.0,0.0,100,0.03,CLR,,0.25,WeatherDisplay:10.37,2014-01-02 03:30:00,
2014-01-01 22:35:00,52.2,52.2,30.14,NE,55,0.0,0.0,100,0.03,CLR,,0.25,WeatherDisplay:10.37,2014-01-02 03:35:00,
2014-01-01 22:40:00,52.3,52.3,30.14,NE,55,0.0,0.0,100,0.02,CLR,,0.25,WeatherDisplay:10.37,2014-01-02 03:40:00,
2014-01-01 22:45:00,52.2,52.2,30.15,NE,55,0.0,0.0,100,0.03,RA,,0.26,WeatherDisplay:10.37,2014-01-02 03:45:00,
2014-01-01 22:50:00,52.3,52.3,30.15,NE,55,0.0,0.0,100,0.03,RA,,0.26,WeatherDisplay:10.37,2014-01-02 03:50:00,
2014-01-01 22:55:00,52.3,52.3,30.14,NE,55,0.0,0.0,100,0.03,,,0.26,WeatherDisplay:10.37,2014-01-02 03:55:00,
2014-01-01 23:00:00,52.3,52.3,30.14,NE,55,0.0,0.0,100,0.02,CLR,,0.26,WeatherDisplay:10.37,2014-01-02 04:00:00,
2014-01-01 23:06:00,52.3,52.3,30.13,NE,55,0.0,0.0,100,0.02,CLR,,0.26,WeatherDisplay:10.37,2014-01-02 04:06:00,
2014-01-01 23:11:00,52.3,52.3,30.13,NE,55,0.0,0.0,100,0.02,RA,,0.27,WeatherDisplay:10.37,2014-01-02 04:11:00,
2014-01-01 23:16:00,52.3,52.3,30.14,NE,55,0.0,0.0,100,0.02,RA,,0.27,WeatherDisplay:10.37,2014-01-02 04:16:00,
2014-01-01 23:21:00,52.3,52.3,30.14,NE,55,0.0,0.0,100,0.02,CLR,,0.27,WeatherDisplay:10.37,2014-01-02 04:21:00,
2014-01-01 23:26:00,52.3,52.3,30.14,NE,55,0.0,0.0,100,0.03,RA,,0.28,WeatherDisplay:10.37,2014-01-02 04:26:00,
2014-01-01 23:31:00,52.3,52.3,30.14,NE,55,0.0,0.0,100,0.03,RA,,0.28,WeatherDisplay:10.37,2014-01-02 04:31:00,
2014-01-01 23:36:00,52.3,52.3,30.14,NE,55,0.0,0.0,100,0.03,CLR,,0.28,WeatherDisplay:10.37,2014-01-02 04:36:00,
2014-01-01 23:41:00,52.3,52.3,30.13,NE,55,0.0,0.0,100,0.04,RA,,0.29,WeatherDisplay:10.37,2014-01-02 04:41:00,
2014-01-01 23:46:00,52.3,52.3,30.13,NE,55,0.0,0.0,100,0.03,RA,,0.29,WeatherDisplay:10.37,2014-01-02 04:46:00,
2014-01-01 23:51:00,52.3,52.3,30.13,NE,55,0.0,0.0,100,0.03,CLR,,0.29,WeatherDisplay:10.37,2014-01-02 04:51:00,
2014-01-01 23:56:00,52.3,52.3,30.13,NE,55,0.0,0.0,100,0.03,CLR,,0.29,WeatherDisplay:10.37,2014-01-02 04:56:00,